Orbital Elements at Epoch 2459000.5 (2020-May-31.0) TDB
Reference: JPL 19 (heliocentric ecliptic J2000)
Element | Value | Uncertainty (1-sigma) | Units |
e | .1388812507270527 | 4.2888e-08 | |
a | 3.2135184517235 | 2.7423e-08 | au |
q | 2.767220989913679 | 1.3439e-07 | au |
i | 4.655294538220537 | 5.4992e-06 | deg |
node | 185.5093499016265 | 5.4525e-05 | deg |
peri | 85.49560671007687 | 5.7865e-05 | deg |
M | 74.62602472174477 | 2.0308e-05 | deg |
tp | 2458564.328353524519 (2019-Mar-21.82835352) | 0.00011738 | TDB |
period | 2104.115733306906 5.76 | 2.6933e-05 7.374e-08 | d yr |
n | .1710932503860948 | 2.1901e-09 | deg/d |
Q | 3.659815913533322 | 3.1231e-08 | au |
|
| | Orbit Determination Parameters
Additional Information
|